This is the latest recevied weather packets stored in our database for station/object N5LSN. If no packets are shown the sender has not sent any weather packets the latest 10 day(s).
| Time | Temp. | Humidity | Pressure | Rain* | Wind** | Luminosity | Snow |
|---|---|---|---|---|---|---|---|
| 1777622016 | 11.67° C | 89% | 1016.8 hPa | 0 mm | - | 0 W/m² | - |
| 1777621711 | 11.67° C | 88% | 1016.6 hPa | 0 mm | - | 0 W/m² | - |
| 1777621407 | 12.22° C | 88% | 1017 hPa | 0 mm | - | 0 W/m² | - |
| 1777621102 | 12.22° C | 88% | 1016.8 hPa | 0 mm | - | 0 W/m² | - |
| 1777620800 | 12.22° C | 86% | 1016.9 hPa | 0 mm | - | 0 W/m² | - |
| 1777620496 | 12.22° C | 85% | 1016.8 hPa | 0 mm | - | 0 W/m² | - |
| 1777620193 | 12.22° C | 86% | 1016.8 hPa | 0 mm | - | 0 W/m² | - |
| 1777619890 | 12.22° C | 84% | 1016.7 hPa | 0 mm | - | 0 W/m² | - |
| 1777619585 | 12.22° C | 84% | 1016.8 hPa | 0 mm | - | 0 W/m² | - |
| 1777619280 | 12.78° C | 85% | 1016.7 hPa | 0 mm | - | 0 W/m² | - |
| 1777618975 | 12.78° C | 79% | 1017.1 hPa | 0 mm | - | 0 W/m² | - |
| 1777618670 | 12.78° C | 78% | 1016.6 hPa | 0 mm | - | 0 W/m² | - |
| 1777618365 | 13.33° C | 78% | 1016.8 hPa | 0 mm | - | 0 W/m² | - |
| 1777618063 | 13.33° C | 77% | 1016.7 hPa | 0 mm | - | 0 W/m² | - |
| 1777617759 | 12.78° C | 80% | 1016.8 hPa | 0 mm | - | 0 W/m² | - |
| 1777617459 | 13.33° C | 80% | 1016.7 hPa | 0 mm | - | 0 W/m² | - |
| 1777617157 | 13.33° C | 79% | 1016.9 hPa | 0 mm | - | 0 W/m² | - |
| 1777616852 | 12.78° C | 79% | 1017.1 hPa | 0 mm | - | 0 W/m² | - |
| 1777616547 | 13.33° C | 81% | 1017.1 hPa | 0 mm | - | 0 W/m² | - |
| 1777616242 | 13.33° C | 80% | 1017.3 hPa | 0 mm | - | 0 W/m² | - |
| 1777615935 | 12.78° C | 81% | 1017.4 hPa | 0 mm | - | 0 W/m² | - |
| 1777615632 | 12.78° C | 81% | 1017.3 hPa | 0 mm | - | 0 W/m² | - |
| 1777615329 | 12.78° C | 80% | 1017.3 hPa | 0 mm | - | 0 W/m² | - |
| 1777615027 | 13.33° C | 80% | 1017 hPa | 0 mm | - | 0 W/m² | - |
| 1777614724 | 12.78° C | 81% | 1017.3 hPa | 0 mm | - | 0 W/m² | - |
* Rain latest hour (hover to see other rain measurements)
** Current wind speed in m/s (hover to see current wind gust speed)